Regional Weather Roundup
Issued by NWS

Home | Current Version | Previous Version | Graphics & Text | Print | Product List | Glossary On
Versions: 1 2 3 4 5 6 7 8 9 10 11 12 13 14 15 16 17 18 19 20 21 22 23 24 25 26 27 28 29 30 31 32 33 34 35 36 37 38 39 40 41 42 43 44 45 46 47 48 49 50
000
ASUS45 KSLC 231910
RWRUT

UTAH REGIONAL WEATHER ROUNDUP
NATIONAL WEATHER SERVICE SALT LAKE CITY UT
1200 PM MST THU FEB 23 2017

UTZ001>011-023>025-232000-

NORTHERN UTAH

CITY           SKY/WX    TMP DP  RH WIND       PRES   REMARKS
BRIGHAM CITY     N/A     32  22  65 W3        29.78R
HILL AFB       LGT SNOW  28  22  76 W17       29.76S WCI  16
LOGAN          CLOUDY    32  24  72 CALM      29.75R
OGDEN          FLURRIES  29  23  78 W14G20    29.77R WCI  18
SALT LAKE CITY FLURRIES  31  22  69 W12G23    29.81R WCI  22
TOOELE VALLEY  CLOUDY    32  23  69 N5        29.82S WCI  27
WENDOVER       CLOUDY    36  12  38 NW17G23   29.82R WCI  25
HEBER CITY     PTSUNNY   34  19  55 S8        29.71R WCI  27
WEST JORDAN    CLOUDY    32  28  86 W6        29.81R WCI  26

$$

UTZ011>015-024>027-232000-

CENTRAL/NORTHEAST UTAH

CITY           SKY/WX    TMP DP  RH WIND       PRES   REMARKS
PROVO AIRPORT  CLOUDY    35  26  69 CALM      29.82R
MOAB/CANYONLAN CLOUDY    40   9  28 W20G29    29.70F WCI  30
DELTA          CLOUDY    30  23  74 S13       29.84S WCI  20
PRICE          CLOUDY    32  12  43 W14G24    29.68R WCI  22
RICHFIELD      PTSUNNY   32  16  51 S14G22    29.82F WCI  22
ROOSEVELT      CLOUDY    32  21  64 W13G18    29.66S WCI  22
VERNAL         LGT SNOW  26  24  92 E6        29.66R FOG     WCI  19

$$

UTZ013>016-019>022-027-232000-

SOUTHERN UTAH

CITY           SKY/WX    TMP DP  RH WIND       PRES   REMARKS
BRYCE CANYON   CLOUDY    21   6  52 NW16      29.77R WCI   7
CEDAR CITY     SUNNY     30  16  56 S7        29.84S WCI  23
MILFORD        SUNNY     28  18  66 S10       29.85R WCI  19
ST GEORGE      MOCLDY    46  13  26 W8G22     29.91F
HANKSVILLE     SUNNY     43   1  17 NW14G21   29.76F
KANAB          SUNNY     41   5  22 SW13      29.88F
BLANDING       MOSUNNY   37   0  21 W18G26    29.80S WCI  27

$$

REGIONAL REPORTS     COLORADO/ARIZONA

CITY           SKY/WX    TMP DP  RH WIND       PRES   REMARKS
CRAIG, CO      LGT SNOW  25  15  66 W23G30    29.63R WCI  10
GRAND JUNCTION MOSUNNY   39   5  24 W23G36    29.69S WCI  28
RIFLE, CO      MOSUNNY   35  14  42 W22G29    29.64S WCI  23
MONTROSE, CO   CLOUDY    36   4  26 NW14      29.70R WCI  27
CORTEZ, CO     PTSUNNY   38   6  26 SW17G32   29.73S WCI  28
COLORADO CITY    N/A     39  12  33 NW13G22   29.90S WCI  32
PAGE, AZ       SUNNY     44   0  16 W13G29    29.81F
GRAND CANYON   MOSUNNY   33  13  43 W14G23    29.83S WCI  23
KINGMAN, AZ    PTSUNNY   49  -4  11 W10G18    29.93F
FLAGSTAFF, AZ  PTSUNNY   32  14  47 W14G22    29.82F WCI  22

$$

REGIONAL REPORTS    NEVADA/IDAHO/WYOMING

CITY           SKY/WX    TMP DP  RH WIND       PRES   REMARKS
LAS VEGAS, NV  MOSUNNY   52   8  17 NW16G22   29.95S
ELY, NY        CLOUDY    27  14  58 N8        29.85R WCI  19
ELKO, NV       CLOUDY    28  15  58 W10       29.91R WCI  19
POCATELLO, ID  CLOUDY    26  23  88 SW21G30   29.74R WCI  12
BURLEY, ID     HVY SNOW  28  23  81 W23G31    29.78R VSB 1/4 WCI  14
FORT BRIDGER,  LGT SNOW  23  21  93 W20G25    29.66S WCI   8
EVANSTON, WY   CLOUDY    21  15  78 SW21      29.64R WCI   5
ROCK SPRINGS,  HAZE      22  17  81 N31G43    29.54R VSB 1/4 WCI   4

$$



USA.gov is the U.S. government's official web portal to all federal, state and local government web resources and services.